Regional Weather Roundup
Issued by NWS Wakefield, VA

Home | Current Version | Previous Version | Text Only | Print | Product List | Glossary On
Versions: 1 2 3 4 5 6 7 8 9 10 11 12 13 14 15 16 17 18 19 20 21 22 23 24 25 26 27 28 29 30 31 32 33 34 35 36 37 38 39 40 41 42 43 44 45 46 47 48 49 50
000
ASUS41 KAKQ 182010
RWRAKQ

REGIONAL WEATHER ROUNDUP
NATIONAL WEATHER SERVICE WAKEFIELD VA
400 PM EDT THU SEP 18 2014

Note: "fair" indicates few or no clouds below 12,000 feet with no
significant weather and/or obstructions to visibility. * = Denotes
station may not report precipitation (e.g., rain,snow,etc.),
thunder or fog.

VAZ042-051-052>054-056-182100-
NORTHERN VIRGINIA

CITY           SKY/WX    TMP DP  RH WIND       PRES   REMARKS
WASH NATIONAL  PTSUNNY   78  51  38 NW7       30.00S
DULLES         MOSUNNY   76  48  37 W9        30.00F
FORT BELVOIR   PTSUNNY   76  57  50 VRB3      30.00S
QUANTICO       PTSUNNY   74  62  66 SW8       30.01S
FREDERICKSBRG* PTSUNNY   74  62  66 CALM      29.99F
STAFFORD*      MOSUNNY   73  64  72 SE6       30.04S
WARRENTON      SUNNY     79  59  50 N6        29.99F
CULPEPER*      MOSUNNY   79  52  38 N5        30.00F
MANASSAS*      NOT AVBL
LEESBURG*      SUNNY     77  52  41 W8        30.01F
WINCHESTER     MOSUNNY   77  43  29 NW7       30.01S
FRONT ROYAL*   CLEAR     77  50  38 CALM      30.00S
LURAY*         MOCLDY    77  52  41 NE3       30.01S
$$

VAZ048-049-060>072-079>083-182100-
CENTRAL AND SOUTH CENTRAL VIRGINIA...AND NORTH CENTRAL NORTH CAROLINA

CITY           SKY/WX    TMP DP  RH WIND       PRES   REMARKS
RICHMOND       CLOUDY    74  58  57 SE5       30.00S
CHESTERFIELD*  CLOUDY    73  55  53 S5        30.01S
PETERSBURG*    CLOUDY    74  57  54 E3        30.00S
HANOVER        LGT RAIN  68  65  90 N3        30.02R FOG
TAPPAHANNOCK*  PTSUNNY   73  57  58 NE3       30.02R
CHARLOTTSVILLE CLOUDY    69  60  73 S5        30.01R
ORANGE*        CLOUDY    72  61  68 E6        30.01F
LOUISA*        LGT RAIN  70  63  78 CALM      30.00S
FARMVILLE*     CLOUDY    75  57  53 S5        29.98S
CREWE*         CLOUDY    75  58  55 CALM      30.00S
FORT PICKETT*  CLOUDY    73  60  63 W3        30.00S
LUNENBURG*     CLOUDY    73  62  66 CALM      30.00S
SOUTH HILL*    PTSUNNY   79  61  53 CALM      30.04F
LAWRENCEVILLE* CLOUDY    75  62  65 CALM      30.00S
ROANOKE RAPIDS CLOUDY    79  59  50 CALM      29.99S
RALEIGH        MOSUNNY   80  58  46 CALM      29.98F
$$

VAZ088>098-182100-
SOUTHEAST VIRGINIA

CITY           SKY/WX    TMP DP  RH WIND       PRES   REMARKS
NORFOLK        SUNNY     75  53  46 NE8       30.00F
VIRGINIA BEACH SUNNY     74  53  48 E10       30.00F
NORFOLK NAVAL  MOSUNNY   75  53  46 E9        30.02F
WEST POINT*    CLOUDY    77  55  46 E7        30.01F
NEWPORT NEWS   CLOUDY    78  56  46 E9        30.00F
LANGLEY AFB    PTSUNNY   74  55  51 SE8       30.00F
FORT EUSTIS    MOSUNNY   77  55  45 S8        29.98F
WILLIAMSBURG*  MOSUNNY   81  59  47 SE6       30.00F
HR EXEC AP*    CLEAR     79  55  44 E6        30.01F
FRANKLIN*      PTSUNNY   77  54  44 E5        29.99S
WAKEFIELD      PTSUNNY   76  60  57 CALM      30.00S
$$

VAZ020-022-025-037-045-182100-
WEST CENTRAL AND SOUTHWEST VIRGINIA

CITY           SKY/WX    TMP DP  RH WIND       PRES   REMARKS
STAUNTON*      PTSUNNY   74  51  44 CALM      30.03S
HOT SPRINGS VA PTSUNNY   62  38  41 S5        30.10F
LYNCHBURG      MOSUNNY   75  59  57 S8        30.01F
DANVILLE       CLOUDY    76  62  62 CALM      29.99S
SOUTH BOSTON*  NOT AVBL
MARTINSVILLE   CLOUDY    75  63  64 CALM      30.02S
ROANOKE        PTSUNNY   75  54  47 N5        30.02F
BLACKSBURG     MOSUNNY   73  57  56 W5        30.06F
DUBLIN*        CLOUDY    72  54  52 W3        30.05F
MARION*        CLOUDY    69  53  56 CALM      30.08F
HILLSVILLE*    CLOUDY    68  54  60 NW6       30.06F
RICHLANDS*     CLOUDY    69  54  58 CALM      30.07F
WISE*          SUNNY     70  46  43 N3        30.08F
ABINGDON*      CLOUDY    71  56  57 NW3       30.04F
$$

MDZ021>025-VAZ099-100-182100-
SOUTHERN MARYLAND AND THE DELMARVA PENINSULA

CITY           SKY/WX    TMP DP  RH WIND       PRES   REMARKS
PATUXENT RIVER PTSUNNY   71  55  56 SE7       30.01R
BAY BRIDGE APT DRIZZLE   68  59  73 CALM      30.01S
LEONARDTOWN    CLOUDY    72  57  60 SE5       30.02S
DOVER          CLOUDY    70  55  57 E5        29.99S
GEORGETOWN     CLOUDY    73  51  46 E7        30.01S
EASTON         MOSUNNY   73  57  56 CALM      30.04S
CAMBRIDGE      SUNNY     73  54  49 S3        30.00S
SALISBURY      MOSUNNY   79  55  43 S8        30.00S
OCEAN CITY     PTSUNNY   71  53  52 SE6       30.01F
WALLOPS ISLAND SUNNY     75  53  46 S10       30.02S
ACCOMACK*      PTSUNNY   73  50  43 CALM      30.01F
$$

NCZ012>017-030>032-182100-
EASTERN NORTH CAROLINA

CITY           SKY/WX    TMP DP  RH WIND       PRES   REMARKS
ELIZABETH CITY SUNNY     75  55  49 NE12      30.01S
AHOSKIE*       SUNNY     77  57  50 CALM      29.99F
EDENTON*       MOSUNNY   76  59  54 E14       30.00S
CURRITUCK*     SUNNY     74  53  46 NE10      30.02S
KILL DEVIL HLS SUNNY     74  55  50 NE8       30.00R
MANTEO         SUNNY     74  56  53 NE12      30.01R
CAPE HATTERAS  SUNNY     74  57  55 NE10G17   29.99R
TARBORO*       PTCLDY    81  59  47 CALM      29.99F
GOLDSBORO      SUNNY     81  62  53 N5        29.95F
WASHINGTON     SUNNY     78  58  49 N5        29.99S
GREENVILLE     MOSUNNY   79  59  50 CALM      30.00S
NEW BERN       PTSUNNY   78  62  57 E7        29.99S
WILMINGTON     MOSUNNY   80  64  58 E12       29.96F
$$

VAZ048-182100-
ELSEWHERE

CITY           SKY/WX    TMP DP  RH WIND       PRES   REMARKS
HARRISBURG PA  MOSUNNY   76  46  34 W9        30.01S
BALTIMORE      PTSUNNY   71  60  68 NE14      30.01R
ANNAPOLIS      LGT RAIN  67  62  84 NE5       30.01R
ANDREWS AFB    MOSUNNY   75  61  61 S6        29.99S
WILMINGTON DE  PTSUNNY   70  56  61 CALM      30.02S
PHILADELPHIA   PTSUNNY   70  57  63 W10       30.02R
WILDWOOD NJ*   CLOUDY    72  50  46 NW5       30.02S
ATLANTIC CITY  CLOUDY    72  51  47 NW6       30.01R
HENDERSON NC   PTSUNNY   74  58  58 NE5       29.99F
GREENSBORO     PTSUNNY   75  62  64 E5        29.99F
ROCKY MOUNT    PTSUNNY   78  59  51 NE6       29.98F
FAYETTEVILLE   MOSUNNY   82  62  50 E8        29.96S
CHARLOTTE      PTSUNNY   75  64  68 N7        29.98F
$$

VAZ100-182100-
MARINE

STATION/POSITION TIME  TEMP    WIND        PRES    WAVE   SWELL
                       AIR SEA DIR/SP/G            HT/PER HT/PER
                 (UTC) (F)     (DEG/KT/KT) (MB)    (FT/S) (FT/S)
44066 TX TWR #4  2000   68 74  340/ 10/ 12 1015.5R   4/11   3/11
CAPE MAY NJ      2000   72 76  300/  5/  7 1015.5F
LEWES DE         2000   72 72   80/  5/  7 1015.9R
15NM E FENWICK I 2000   71 74              1016.3R   3/12
OCEAN-CITY-INLET 2000   71 72  160/  5/  7 1016.0S
WACHAPREAGUE VA  2000   71 74  120/  6/  9 1016.3F
THOMAS POINT MD  2000   71 75  160/  5/  6 1017.1R
GOOSES REEF MD   2000   72     190/  8/ 12 1016.4S
COVE POINT MD    2000   71     180/ 10/ 11 1015.9S
SOLOMONS ISLAND  2000      77                N/A
BISHOPS HEAD MD  2000   73 74  150/  5/  5 1015.7F
PINEY POINT MD   2000          160/ 10/ 12   N/A
POTOMAC MD       2000   72     160/  8/ 10 1015.6S
CAMBRIDGE MD     2000   73 74  210/  6/  8 1015.6R
LEWISETTA VA     2000   71 75  140/  8/  9 1015.7S
RAPPAHANNOCK LGT 2000           CALM  /  1 1016.6F
STINGRAY PT      2000   72     150/  4/  8   N/A
YORK RVR RNG VA  2000   72     150/  6/  8 1015.5F
YORKTOWN VA      2000   72 77  100/ 10/ 11 1015.6F
JAMESTOWN VA     2000   73     160/  8/ 10   N/A
DOMINION TERM VA 2000   72      90/ 10/ 15 1016.1S
KIPTOPEKE VA     2000      80  130/  9/ 15   N/A
CHES BAY BRIDGE  2000   72 76   90/  5/ 10 1015.7F
CAPE HENRY VA    2000   71      80/ 10/ 12 1015.1F
CHESAPEAKE LGHT  1900   70      60/  9/ 10 1017.2S
WILLOUBY STN VA  2000   71     110/ 11/ 12 1014.8F
S CRANEY ISL VA  2000           30/  9/ 10 1015.6F
CAPE HENRY BUOY  2000      76                N/A     3/11   2/11
1ST LANDING BUOY 2000   72      90/  8/ 12 1015.9F
CAPE CHARLES BUO 2000      75                N/A     3/12   3/12
OFFSHORE WE BUOY 2000      74                N/A     4/13   3/13
64NM E OF VA BCH 2000   72 77   30/ 14/ 17 1015.4R   4/11   3/11
DUCK PIER NC     2000   71 75   50/ 13/ 15 1015.4S
44100 DUCK FRF   2000      75                N/A     4/13   2/13
44056 DUCK FRF   2000                        N/A     4/12   2/12
OREGON INLET NC  2000   73 74   30/ 13/ 17 1015.7S
HATTERAS NC      2000   74 76   40/  8/ 13 1016.1S
DIAMOND SHLS NC  2000   74     360/ 16/ 19 1014.9R   5/11   3/11
CAPE LOOKOUT NC  1900   74      50/ 16/ 18 1015.4R
$$


USA.gov is the U.S. government's official web portal to all federal, state and local government web resources and services.